Preview of NWS' New Version of Forecast
This preview is not operational and should not be used for support decisions.

Regional Weather Roundup (RWR)

Issued by National Weather Service (NWS)

                            
000
ASPQ40 PGUM 190810
RWRPQ 
WEATHER ROUNDUP FOR THE MARIANAS AND MICRONESIA
NATIONAL WEATHER SERVICE TIYAN GU
600 PM CHST TUE FEB 19 2019

GUZ001>004-190900-
MARIANA ISLANDS-
  
CITY           SKY/WX    TMP DP  RH WIND       PRES   REMARKS
GUAM AIRPORT   MOCLDY    79  75  89 NE17G25   29.99R                  
ANDERSEN AFB   MOCLDY    79  72  78 NE24      29.99R                  
ROTA AIRPORT   MOCLDY    77  70  78 E16       29.98R                  
TINIAN AP      MOCLDY   N/A N/A N/A E22G29    29.98R                  
SAIPAN AP      PTCLDY    81  66  61 NE22G29   29.99R                  

$$

PMZ161-190900-
REPUBLIC OF PALAU-
  
CITY           SKY/WX    TMP DP  RH WIND       PRES   REMARKS
KOROR AP       PTSUNNY   81  73  78 NE10G25   29.91S                  
KOROR WSO      NOT AVBL                                               

$$

PMZ171>174-190900-
FEDERATED STATES OF MICRONESIA-
  
CITY           SKY/WX    TMP DP  RH WIND       PRES   REMARKS
YAP AIRPORT    PTSUNNY   82  75  78 NE9       29.91R                  
CHUUK AP       CLOUDY    82  75  78 N15       29.78S                  
POHNPEI AP     NOT AVBL                                               
POHNPEI WSO    LGT RAIN  79  77  94 E10       29.73R                  
KOSRAE AP      NOT AVBL                                               

$$

PMZ181-190900-
REPUBLIC OF THE MARSHALL ISLANDS-
  
CITY           SKY/WX    TMP DP  RH WIND       PRES   REMARKS
KWAJALEIN AP   PTCLDY    82  75  78 E23G31    29.82R                  
MAJURO AP      NOT AVBL                                               
MAJURO WSO     MOCLDY    82  75  78 E13       29.82R                  

$$